RADFXSAT (FOX-1B)

Last updated on Mon Nov 03 2025 00:03:21 GMT+0000 (Coordinated Universal Time)

1 43017U 17073E 25306.17441192 .00011012 00000+0 53005-3 0 9998 2 43017 97.5002 173.3199 0165673 30.0759 330.9858 15.07559440431122
UTC large
Height (km)
Speed (km/s)
/
Latitude / Longitude
Inclination (degrees)
Orbital Period (minutes)
Azimuth
Elevation
Range (km)
Doppler Factor

Next 0 passes for location: London (51.5072 / 0.1276)

Sorry there are no passes over London.